XE3ADC-4 Weather Reports


time (UTC)temp
C
wind
direction
speed
KPH
gust
KPH
rain 1hr
cm
rain 24hr
cm
rain mn
cm
humidity
%
barometer
mb
20260504045727 25 222 6.4 8.0 0.00 1.37 1.37 9 1017.8
20260504042727 26 237 3.2 6.4 0.00 1.37 1.37 9 1017.7
20260504035727 26 227 4.8 6.4 0.00 1.37 1.37 9 1017.6
20260504032727 25 217 4.8 8.0 0.36 1.37 1.37 9 1017.5
20260504025727 25 208 4.8 6.4 0.38 1.37 1.37 9 1017.3
20260504022727 26 167 0.0 3.2 0.03 1.02 1.02 9 1016.8
20260504015727 26 217 6.4 9.7 0.00 0.97 0.97 9 1016.5
20260504012727 27 187 1.6 6.4 0.00 0.97 0.97 9 1016.3
20260504005727 26 204 3.2 6.4 0.00 0.97 0.97 9 1016.0
20260504002727 27 247 3.2 8.0 0.00 0.97 0.97 9 1015.3
20260503211603 30 61 4.8 8.0 0.00 0.00 0.00 8 1015.0
20260503204603 30 227 6.4 9.7 0.00 0.00 0.00 8 1015.2
20260503201603 31 242 4.8 8.0 0.00 0.00 0.00 7 1015.5
20260503194603 30 233 6.4 11.3 0.00 0.00 0.00 8 1015.9
20260503191603 30 222 9.7 12.9 0.00 0.00 0.00 8 1016.4
20260503184603 31 233 8.0 11.3 0.00 0.00 0.00 7 1016.7
20260503181603 30 222 9.7 14.5 0.00 0.00 0.00 8 1017.1
20260503174603 29 238 6.4 12.9 0.00 0.00 0.00 8 1017.5
20260503171603 30 198 6.4 11.3 0.00 0.00 0.00 8 1017.7
20260503081603 28 157 0.0 4.8 0.00 0.00 0.00 8 1014.3
20260503071603 28 218 4.8 8.0 0.00 0.00 0.00 8 1014.7